DW5707 Weather Reports


Display with metric or nautical units.
time (UTC)temp
F
wind
direction
speed
MPH
gust
MPH
rain 1hr
in
rain 24hr
in
rain mn
in
humidity
%
barometer
mb
20260504184849 70 181 5.0 14.0 0.00 0.00 0.00 45 1011.7
20260504184347 70 175 5.0 14.0 0.00 0.00 0.00 47 1011.7
20260504183848 70 345 6.0 13.0 0.00 0.00 0.00 45 1011.8
20260504183340 70 345 5.0 13.0 0.00 0.00 0.00 46 1011.8
20260504181830 70 222 5.0 14.0 0.00 0.00 0.00 49 1012.0
20260504181331 70 131 6.0 14.0 0.00 0.00 0.00 51 1012.0
20260504180831 70 262 5.0 12.0 0.00 0.00 0.00 47 1012.0
20260504180333 70 345 5.0 12.0 0.00 0.00 0.00 44 1012.0
20260504175839 69 345 5.0 19.0 0.00 0.00 0.00 46 1012.2
20260504175338 70 188 5.0 19.0 0.00 0.00 0.00 46 1012.0
20260504174836 69 345 4.0 14.0 0.00 0.00 0.00 46 1012.0
20260504174338 70 114 4.0 14.0 0.00 0.00 0.00 46 1012.2
20260504173330 70 258 4.0 11.0 0.00 0.00 0.00 45 1012.4
20260504172331 69 181 4.0 10.0 0.00 0.00 0.00 45 1012.4
20260504171329 69 230 4.0 10.0 0.00 0.00 0.00 50 1012.7
20260504170830 69 345 5.0 14.0 0.00 0.00 0.00 49 1012.7
20260504160321 67 301 3.0 11.0 0.00 0.00 0.00 47 1013.5
20260504150819 65 158 3.0 9.0 0.00 0.00 0.00 47 1014.0
20260504150319 65 96 3.0 8.0 0.00 0.00 0.00 49 1014.0
20260504141314 62 262 3.0 9.0 0.00 0.00 0.00 55 1014.4
20260504140813 62 215 3.0 9.0 0.00 0.00 0.00 52 1014.3
20260504140314 62 203 3.0 9.0 0.00 0.00 0.00 53 1014.3
20260504130812 54 345 3.0 9.0 0.00 0.00 0.00 65 1014.6
20260504120314 48 133 2.0 4.0 0.00 0.00 0.00 72 1014.9
20260504100505 46 106 0.0 2.0 0.00 0.00 0.00 66 1015.0
20260504081928 46 252 1.0 6.0 0.00 0.00 0.00 61 1015.3
20260504081428 46 269 2.0 6.0 0.00 0.00 0.00 62 1015.2
20260504080927 46 246 2.0 6.0 0.00 0.00 0.00 62 1015.3
20260504080423 46 264 2.0 7.0 0.00 0.00 0.00 63 1015.2
20260504050410 45 292 0.0 0.0 0.00 0.00 0.00 63 1015.5
20260504045911 46 293 0.0 0.0 0.00 0.00 0.00 62 1015.6
20260504045407 46 293 0.0 0.0 0.00 0.00 0.00 62 1015.6
20260504044907 46 287 0.0 0.0 0.00 0.00 0.00 62 1015.6
20260504044408 46 290 0.0 1.0 0.00 0.00 0.00 62 1015.6
20260504043901 46 290 0.0 2.0 0.00 0.00 0.00 61 1015.5
20260504043357 46 290 0.0 2.0 0.00 0.00 0.00 61 1015.5
20260504042849 46 289 0.0 1.0 0.00 0.00 0.00 61 1015.5
20260504041844 47 289 0.0 2.0 0.00 0.00 0.00 60 1015.5
20260504041343 47 289 0.0 2.0 0.00 0.00 0.00 60 1015.6
20260504040841 47 290 0.0 2.0 0.00 0.00 0.00 60 1015.5
20260504040343 47 232 0.0 0.0 0.00 0.00 0.00 61 1015.4
20260504035838 47 232 0.0 0.0 0.00 0.00 0.00 61 1015.3
20260504035340 47 233 0.0 0.0 0.00 0.00 0.00 60 1015.3
20260504034840 47 233 0.0 0.0 0.00 0.00 0.00 60 1015.2
20260504034340 47 233 0.0 0.0 0.00 0.00 0.00 60 1015.2
20260504033839 47 233 0.0 0.0 0.00 0.00 0.00 60 1015.2
20260504033339 47 231 0.0 0.0 0.00 0.00 0.00 60 1015.2
20260504032840 47 231 0.0 0.0 0.00 0.00 0.00 61 1015.1
20260504032341 47 231 0.0 0.0 0.00 0.00 0.00 60 1015.2
20260504031840 47 231 0.0 0.0 0.00 0.00 0.00 60 1015.1
20260504031341 47 231 0.0 0.0 0.00 0.00 0.00 60 1015.1
20260504030844 47 231 0.0 0.0 0.00 0.00 0.00 60 1015.1
20260504030344 47 231 0.0 0.0 0.00 0.00 0.00 61 1015.0
20260504025844 47 231 0.0 0.0 0.00 0.00 0.00 61 1015.1
20260504025344 47 231 0.0 0.0 0.00 0.00 0.00 60 1015.1
20260504024842 47 231 0.0 0.0 0.00 0.00 0.00 60 1015.1
20260504023345 46 298 0.0 0.0 0.00 0.00 0.00 62 1015.0
20260504022843 46 298 0.0 0.0 0.00 0.00 0.00 61 1014.9
20260504022342 46 298 0.0 0.0 0.00 0.00 0.00 64 1014.9
20260504020342 47 298 0.0 0.0 0.00 0.00 0.00 60 1015.0
20260504015840 47 298 0.0 0.0 0.00 0.00 0.00 60 1015.0
20260504014839 47 298 0.0 0.0 0.00 0.00 0.00 61 1014.9
20260504014339 47 298 0.0 0.0 0.00 0.00 0.00 61 1014.9
20260504013840 47 298 0.0 0.0 0.00 0.00 0.00 60 1014.9
20260504013338 47 298 0.0 0.0 0.00 0.00 0.00 61 1014.9
20260504012832 47 298 0.0 0.0 0.00 0.00 0.00 62 1014.8
20260504012331 47 298 0.0 0.0 0.00 0.00 0.00 61 1014.7
20260504011829 47 298 0.0 0.0 0.00 0.00 0.00 63 1014.7
20260504011329 48 298 0.0 0.0 0.00 0.00 0.00 62 1014.6
20260504010827 48 298 0.0 0.0 0.00 0.00 0.00 59 1014.5
20260504005825 48 298 0.0 0.0 0.00 0.00 0.00 59 1014.6
20260504005323 49 298 0.0 0.0 0.00 0.00 0.00 62 1014.5
20260504004822 50 298 0.0 0.0 0.00 0.00 0.00 62 1014.5
20260504004322 50 298 0.0 0.0 0.00 0.00 0.00 56 1014.5
20260504003819 51 298 0.0 0.0 0.00 0.00 0.00 56 1014.4
20260504003319 51 284 0.0 0.0 0.00 0.00 0.00 54 1014.4
20260504002820 51 292 0.0 0.0 0.00 0.00 0.00 53 1014.3
20260504002318 52 294 0.0 0.0 0.00 0.00 0.00 51 1014.3
20260504001315 53 295 0.0 0.0 0.00 0.00 0.00 50 1014.2
20260504000817 53 296 0.0 1.0 0.00 0.00 0.00 50 1014.2
20260504000310 53 296 0.0 3.0 0.00 0.00 0.00 49 1014.2
20260503235811 53 296 1.0 3.0 0.00 0.00 0.00 50 1014.1
20260503235311 54 274 1.0 3.0 0.00 0.00 0.00 50 1014.1
20260503234812 54 334 2.0 5.0 0.00 0.00 0.00 50 1014.1
20260503234310 55 335 3.0 5.0 0.00 0.00 0.00 49 1013.9
20260503233806 55 21 2.0 4.0 0.00 0.00 0.00 49 1013.8
20260503233306 55 345 2.0 4.0 0.00 0.00 0.00 48 1013.8
20260503232804 55 345 3.0 8.0 0.00 0.00 0.00 48 1013.7
20260503232305 56 335 4.0 8.0 0.00 0.00 0.00 48 1013.7
20260503231801 56 329 3.0 6.0 0.00 0.00 0.00 47 1013.7
20260503231301 56 294 3.0 8.0 0.00 0.00 0.00 45 1013.7
20260503230800 56 283 3.0 8.0 0.00 0.00 0.00 45 1013.7
20260503230301 56 302 5.0 10.0 0.00 0.00 0.00 48 1013.7
20260503225802 56 306 6.0 10.0 0.00 0.00 0.00 47 1013.7
20260503224752 57 6 6.0 12.0 0.00 0.00 0.00 47 1013.8
20260503224249 57 336 6.0 12.0 0.00 0.00 0.00 47 1013.9
20260503223749 57 317 4.0 9.0 0.00 0.00 0.00 48 1013.8
20260503223249 57 287 4.0 9.0 0.00 0.00 0.00 45 1013.8
20260503222749 57 340 4.0 9.0 0.00 0.00 0.00 46 1013.7
20260503222251 57 296 3.0 9.0 0.00 0.00 0.00 44 1013.7
20260503221749 57 345 4.0 10.0 0.00 0.00 0.00 46 1013.7
20260503221246 57 259 7.0 14.0 0.00 0.00 0.00 44 1013.7
20260503220748 57 345 7.0 14.0 0.00 0.00 0.00 47 1013.7
20260503215745 57 340 9.0 14.0 0.00 0.00 0.00 45 1013.8
20260503215244 58 340 6.0 12.0 0.00 0.00 0.00 46 1013.8
20260503214749 58 340 6.0 11.0 0.00 0.00 0.00 45 1013.8
20260503214246 58 340 7.0 16.0 0.00 0.00 0.00 44 1013.7
20260503213743 58 340 7.0 16.0 0.00 0.00 0.00 43 1013.7
20260503213243 58 303 7.0 15.0 0.00 0.00 0.00 44 1013.6
20260503212745 58 340 7.0 15.0 0.00 0.00 0.00 43 1013.7
20260503212242 59 323 6.0 12.0 0.00 0.00 0.00 40 1013.7
20260503211739 59 2 5.0 12.0 0.00 0.00 0.00 45 1013.6
20260503211238 59 314 5.0 11.0 0.00 0.00 0.00 44 1013.7
20260503210737 59 287 7.0 16.0 0.00 0.00 0.00 42 1013.7
20260503205738 59 336 8.0 15.0 0.00 0.00 0.00 44 1013.7
20260503205237 59 345 6.0 12.0 0.00 0.00 0.00 43 1013.6
20260503204738 59 336 9.0 18.0 0.00 0.00 0.00 43 1013.6
20260503204238 58 336 11.0 18.0 0.00 0.00 0.00 42 1013.7
20260503203736 58 345 8.0 17.0 0.00 0.00 0.00 43 1013.6
20260503203236 58 345 6.0 10.0 0.00 0.00 0.00 41 1013.6
20260503202736 58 345 7.0 17.0 0.00 0.00 0.00 40 1013.7
20260503202237 59 308 11.0 20.0 0.00 0.00 0.00 45 1013.7
20260503201737 59 345 10.0 20.0 0.00 0.00 0.00 45 1013.8
20260503201232 59 345 10.0 15.0 0.00 0.00 0.00 45 1013.8
20260503200726 58 323 10.0 16.0 0.00 0.00 0.00 44 1013.9
20260503200226 58 345 10.0 18.0 0.00 0.00 0.00 44 1014.0
20260503195727 58 335 10.0 18.0 0.00 0.00 0.00 43 1014.0
20260503195226 58 335 10.0 17.0 0.00 0.00 0.00 45 1014.1
20260503194726 58 9 8.0 17.0 0.00 0.00 0.00 47 1014.2
20260503194227 57 316 6.0 16.0 0.00 0.00 0.00 44 1014.2
20260503193727 57 250 8.0 19.0 0.00 0.00 0.00 43 1014.3
20260503193228 58 354 10.0 19.0 0.00 0.00 0.00 43 1014.4
20260503192228 58 345 10.0 19.0 0.00 0.00 0.00 47 1014.4
20260503185722 58 303 7.0 16.0 0.00 0.00 0.00 49 1014.7
20260503185215 57 291 7.0 15.0 0.00 0.00 0.00 50 1014.7